Showing default

NIGCOMSAT 1R, 38014

Orbit data source: Space-Track

NIGCOMSAT 1R, 38014 is a payload satellite owned by Nigcomsat (NG) in GEO that was launched on Mon, 19 Dec 2011 UTC via a CHANG ZHENG 3B launch vehicle from the Xichang Space Center, China (XSC). Payload-class satellites include a variety of spacecraft equipped with specific instruments for various scientific and technological missions. These include communications satellites like Starlink; space stations such as the ISS; scientific satellites like the Hubble; Earth observation satellites from companies like Planet Labs, Umbra, and HawkEye 360; GPS; miniature CubeSats for education and research; and military/defense satellites.

Not visible in the next 10 days
Identifier
38014, 2011-077A
Orbit
GEO
Country
Flag of NGNG / NIG
Related business
Manufacturer
CAST
Mission
Operational Civil Communications
Bus & Motor
DFH-4, DFH-4 LAE
Mass
~5,086 kg wet, ~2,500 kg dry
Launch date (UTC)
2011-12-19 (14 years ago)
Launch vehicle
CHANG ZHENG 3B
Launch site
Xichang Space Center, China (XSC)
Object type
Payload
Rocket body
Debris
Shape & HBR
Box + 2 Pan, 15.0 m
Radar Cross Section
34.063 m², Large (>1 m²)

Expand to show TLE details & history
Last TLE update: 12 hours ago

TLE from 12 hours ago
0 NIGCOMSAT 1R
1 38014U 11077A   25259.56641766  .00000125  00000-0  00000-0 0  9994
2 38014   0.0402 324.5083 0000840 316.6471 320.9967  1.00270388 50212
Epoch: 2025-09-16T13:35Z
TLE epoch observation values (Epoch: 2025-09-16T13:35:38.485Z)
Latitude
0.00761°
Longitude
42.48159°
Altitude
35,783.739 km
Speed
3.075 km/s
True Right ascension
16h 08m 35s
True Declination
0° 00' 27"
Sunlit
Object was in daylight at epoch
Visualization orbit readout
Latitude
Unknown
Longitude
Unknown
Altitude
Unknown
Speed
Unknown
Apparent Right ascension
Unknown
Apparent Declination
Unknown
Sunlit
N/A
Visualization observer readout
Local Sidereal Time
17:52:37
Azimuth
Unknown
Elevation
Unknown
Doppler factor
Unknown
Orbital elements
Apogee altitude
35,791.599 km
Perigee altitude
35,784.515 km
Semi-major axis
42,166.194 km
Eccentricity
0.00008
Inclination
0.0402°
RAAN
324.5083°
Arg. of periapsis
316.6471°
True anomaly
320.99064°
Mean anomaly
320.9967°
Eccentric anomaly
320.99367°
Mean motion
0.25067 °/min
Orbital period
1,436.17 mins
BSTAR
0
Loading maneuver chart data...
Computing Atmospheric mass density...
Loading historical data...
Loading historical data...
Loading historical data...
Loading historical data...
Loading historical data...
Loading historical data...
Loading historical data...

Documentation

Showing up to 5 results
|